EW0214 Weather Reports


time (UTC)temp
C
wind
direction
speed
KPH
gust
KPH
rain 1hr
cm
rain 24hr
cm
rain mn
cm
humidity
%
barometer
mb
20260507010305 18 324 1.6 8.0 0.00 0.00 0.00 74 1012.9
20260507005529 18 336 1.6 8.0 0.00 0.00 0.00 74 1013.0
20260507005029 18 321 1.6 6.4 0.00 0.00 0.00 74 1012.8
20260507004802 18 316 1.6 8.0 0.00 0.00 0.00 74 1012.8
20260507004029 18 315 1.6 12.9 0.00 0.00 0.00 74 1012.9
20260507003529 18 5 1.6 12.9 0.00 0.00 0.00 74 1012.1
20260507003029 18 323 1.6 12.9 0.00 0.00 0.00 74 1012.6
20260507002530 18 5 3.2 12.9 0.00 0.00 0.00 74 1012.4
20260507002030 18 336 1.6 8.0 0.00 0.00 0.00 74 1012.2
20260507001528 18 329 3.2 11.3 0.00 0.00 0.00 74 1012.6
20260507001026 18 321 3.2 14.5 0.00 0.00 0.00 73 1012.3
20260507000525 18 336 3.2 14.5 0.00 0.00 0.00 73 1012.3
20260507000026 18 0 4.8 12.9 0.00 0.00 0.00 73 1012.5
20260506235522 18 304 3.2 9.7 0.00 0.00 0.00 73 1012.3
20260506235022 19 292 3.2 9.7 0.00 0.00 0.00 73 1012.4
20260506234523 19 335 3.2 9.7 0.00 0.00 0.00 72 1012.4
20260506234024 19 355 4.8 16.1 0.00 0.00 0.00 72 1012.5
20260506233519 19 322 3.2 16.1 0.00 0.00 0.00 72 1012.4
20260506233018 19 0 3.2 8.0 0.00 0.00 0.00 72 1012.1
20260506232524 19 321 3.2 9.7 0.00 0.00 0.00 72 1012.2
20260506232519 19 340 3.2 9.7 0.00 0.00 0.00 72 1012.3
20260506231749 19 350 3.2 14.5 0.00 0.00 0.00 72 1012.2
20260506231019 19 9 4.8 14.5 0.00 0.00 0.00 71 1012.2
20260506230519 19 5 4.8 14.5 0.00 0.00 0.00 70 1012.2
20260506230018 19 315 4.8 14.5 0.00 0.00 0.00 70 1012.2
20260506225520 19 11 4.8 14.5 0.00 0.00 0.00 71 1012.3
20260506225015 20 343 4.8 17.7 0.00 0.00 0.00 70 1012.2
20260506224515 20 320 6.4 17.7 0.00 0.00 0.00 69 1012.1
20260506224015 20 317 4.8 19.3 0.00 0.00 0.00 69 1012.1
20260506223515 20 315 6.4 19.3 0.00 0.00 0.00 69 1012.1
20260506223015 20 309 6.4 19.3 0.00 0.00 0.00 68 1012.0
20260506222515 20 0 6.4 19.3 0.00 0.00 0.00 68 1012.0
20260506222014 20 328 6.4 19.3 0.00 0.00 0.00 67 1011.7
20260506221515 21 5 4.8 16.1 0.00 0.00 0.00 67 1011.8
20260506221016 21 351 3.2 16.1 0.00 0.00 0.00 67 1012.0
20260506220510 21 339 3.2 12.9 0.00 0.00 0.00 66 1012.0
20260506220003 21 290 4.8 16.1 0.00 0.00 0.00 65 1012.0
20260506215728 22 36 4.8 16.1 0.00 0.00 0.00 66 1012.0
20260506214951 22 327 4.8 17.7 0.00 0.00 0.00 64 1011.9
20260506214445 22 11 3.2 17.7 0.00 0.00 0.00 65 1011.7
20260506213939 22 288 3.2 16.1 0.00 0.00 0.00 66 1011.6
20260506213432 22 20 4.8 19.3 0.00 0.00 0.00 66 1011.5
20260506212927 22 298 4.8 19.3 0.00 0.00 0.00 66 1011.4
20260506212421 22 180 4.8 14.5 0.00 0.00 0.00 66 1011.5
20260506211915 22 11 6.4 20.9 0.00 0.00 0.00 65 1011.5
20260506211409 23 344 6.4 20.9 0.00 0.00 0.00 64 1011.5
20260506210903 23 281 6.4 20.9 0.00 0.00 0.00 64 1011.5
20260506210357 23 332 6.4 20.9 0.00 0.00 0.00 64 1011.4
20260506205851 23 200 4.8 16.1 0.00 0.00 0.00 64 1011.6
20260506205615 24 294 6.4 17.7 0.00 0.00 0.00 64 1011.6
20260506204837 24 0 4.8 17.7 0.00 0.00 0.00 65 1011.6
20260506204331 24 285 4.8 12.9 0.00 0.00 0.00 65 1011.7
20260506203825 24 336 3.2 14.5 0.00 0.00 0.00 65 1011.7
20260506203319 25 317 4.8 19.3 0.00 0.00 0.00 65 1011.8
20260506202813 25 298 4.8 19.3 0.00 0.00 0.00 65 1011.7
20260506202307 25 315 4.8 16.1 0.00 0.00 0.00 65 1011.7
20260506201802 25 355 4.8 17.7 0.00 0.00 0.00 64 1011.6
20260506201254 25 15 4.8 16.1 0.00 0.00 0.00 65 1011.6
20260506200749 25 270 3.2 16.1 0.00 0.00 0.00 65 1011.5
20260506200243 25 337 3.2 19.3 0.00 0.00 0.00 67 1011.4
20260506195737 25 337 3.2 19.3 0.00 0.00 0.00 66 1011.3
20260506195230 26 229 3.2 16.1 0.00 0.00 0.00 67 1011.3
20260506194725 26 30 3.2 14.5 0.00 0.00 0.00 67 1011.3
20260506194218 26 336 3.2 14.5 0.00 0.00 0.00 67 1011.2
20260506193713 26 292 4.8 19.3 0.00 0.00 0.00 66 1011.2
20260506193207 26 191 6.4 19.3 0.00 0.00 0.00 66 1011.0
20260506192700 27 355 4.8 17.7 0.00 0.00 0.00 66 1010.9
20260506192155 27 313 3.2 17.7 0.00 0.00 0.00 66 1010.9
20260506191650 27 355 3.2 11.3 0.00 0.00 0.00 67 1011.0
20260506191143 27 355 4.8 12.9 0.00 0.00 0.00 67 1011.1
20260506190637 27 0 4.8 12.9 0.00 0.00 0.00 66 1011.2
20260506190403 27 5 3.2 12.9 0.00 0.00 0.00 66 1011.4
20260506185626 27 355 4.8 12.9 0.00 0.00 0.00 67 1011.3
20260506185119 27 355 4.8 12.9 0.00 0.00 0.00 68 1011.3
20260506184613 27 24 3.2 8.0 0.00 0.00 0.00 69 1011.2
20260506184107 27 34 3.2 8.0 0.00 0.00 0.00 68 1011.1
20260506183601 26 28 3.2 9.7 0.00 0.00 0.00 69 1011.1
20260506183054 26 355 4.8 9.7 0.00 0.00 0.00 69 1011.2
20260506182549 26 17 3.2 11.3 0.00 0.00 0.00 70 1011.3
20260506182049 26 86 3.2 11.3 0.00 0.00 0.00 70 1011.5
20260506181549 25 355 3.2 9.7 0.00 0.00 0.00 73 1011.4
20260506181048 25 348 4.8 14.5 0.00 0.00 0.00 74 1011.4
20260506180549 25 38 3.2 14.5 0.00 0.00 0.00 74 1011.3
20260506180048 24 125 3.2 11.3 0.00 0.00 0.00 74 1011.2
20260506175555 23 146 4.8 12.9 0.00 0.00 0.00 76 1011.3
20260506175549 24 18 4.8 12.9 0.00 0.00 0.00 76 1011.2
20260506174550 23 88 4.8 12.9 0.00 0.00 0.00 76 1011.4
20260506174048 23 71 4.8 12.9 0.00 0.00 0.00 78 1011.3
20260506173548 22 100 4.8 14.5 0.00 0.00 0.00 79 1011.4
20260506173048 22 129 4.8 14.5 0.00 0.00 0.00 79 1011.4
20260506172548 22 96 3.2 11.3 0.00 0.00 0.00 80 1011.5
20260506172049 22 39 3.2 12.9 0.00 0.00 0.00 82 1011.6
20260506171546 21 38 1.6 12.9 0.00 0.00 0.00 82 1011.6
20260506171046 21 111 1.6 6.4 0.00 0.00 0.00 83 1011.5
20260506170545 21 34 3.2 14.5 0.00 0.00 0.00 84 1011.6
20260506170047 21 17 3.2 14.5 0.00 0.00 0.00 83 1011.7
20260506165541 20 17 1.6 12.9 0.00 0.00 0.00 83 1011.7
20260506165036 20 350 4.8 14.5 0.00 0.00 0.00 82 1011.8
20260506164530 20 15 4.8 14.5 0.00 0.00 0.00 82 1012.1
20260506164027 20 30 3.2 14.5 0.00 0.00 0.00 81 1012.2
20260506164023 20 26 3.2 12.9 0.00 0.00 0.00 81 1012.0
20260506163019 20 340 3.2 14.5 0.00 0.00 0.00 80 1012.5
20260506162521 20 12 4.8 19.3 0.00 0.00 0.00 80 1012.8
20260506162018 21 5 4.8 19.3 0.00 0.00 0.00 79 1012.9
20260506161751 21 344 3.2 16.1 0.00 0.00 0.00 79 1013.2
20260506161018 21 311 8.0 32.2 0.00 0.00 0.00 79 1013.1
20260506160749 21 344 11.3 32.2 0.00 0.00 0.00 79 1012.6
20260506160018 22 334 9.7 25.7 0.00 0.00 0.00 79 1012.1
20260506155518 23 355 8.0 25.7 0.00 0.00 0.00 80 1012.1
20260506155017 24 0 6.4 22.5 0.00 0.00 0.00 82 1012.0
20260506154518 25 355 3.2 22.5 0.00 0.00 0.00 83 1011.7
20260506154018 25 56 1.6 6.4 0.00 0.00 0.00 85 1011.5
20260506153750 25 57 1.6 6.4 0.00 0.00 0.00 85 1011.4
20260506153019 25 96 1.6 4.8 0.00 0.00 0.00 85 1011.5
20260506152750 25 149 0.0 1.6 0.00 0.00 0.00 85 1011.2
20260506152015 25 149 0.0 1.6 0.00 0.00 0.00 85 1011.0
20260506151519 25 149 0.0 3.2 0.00 0.00 0.00 85 1011.0
20260506151514 25 149 0.0 1.6 0.00 0.00 0.00 85 1011.1
20260506150514 25 149 1.6 3.2 0.00 0.00 0.00 85 1010.9
20260506150015 24 149 1.6 4.8 0.00 0.00 0.00 85 1010.9
20260506145513 24 149 3.2 9.7 0.00 0.00 0.00 85 1010.6
20260506145015 24 155 3.2 9.7 0.00 0.00 0.00 86 1010.4
20260506144746 24 143 3.2 8.0 0.00 0.00 0.00 86 1010.3
20260506144015 24 152 4.8 8.0 0.00 0.00 0.00 86 1010.3
20260506143514 24 155 3.2 9.7 0.00 0.00 0.00 86 1010.4
20260506143015 24 173 3.2 9.7 0.00 0.00 0.00 86 1010.1
20260506142515 24 150 4.8 9.7 0.00 0.00 0.00 87 1009.9
20260506142015 24 150 3.2 8.0 0.00 0.00 0.00 87 1009.7
20260506141514 24 140 1.6 6.4 0.00 0.00 0.00 87 1009.9
20260506141015 24 140 0.0 4.8 0.00 0.00 0.00 87 1010.2
20260506140513 24 138 0.0 3.2 0.00 0.00 0.00 87 1010.4
20260506140016 24 138 0.0 8.0 0.00 0.00 0.00 87 1010.5
20260506135512 24 138 0.0 8.0 0.00 0.00 0.00 87 1010.3
20260506135006 23 149 1.6 8.0 0.00 0.00 0.00 87 1010.0
20260506134500 23 150 3.2 8.0 0.00 0.00 0.00 87 1009.6
20260506134228 23 147 4.8 9.7 0.00 0.00 0.00 87 1009.7
20260506133448 23 150 4.8 9.7 0.00 0.00 0.00 87 1009.7
20260506133217 23 143 3.2 8.0 0.00 0.00 0.00 88 1009.6
20260506132940 23 148 3.2 8.0 0.00 0.00 0.00 88 1009.6
20260506131930 23 145 3.2 8.0 0.00 0.00 0.00 88 1009.6
20260506131427 23 144 3.2 8.0 0.00 0.00 0.00 88 1009.6
20260506131422 23 140 3.2 11.3 0.00 0.00 0.00 88 1009.5
20260506130411 23 126 3.2 11.3 0.00 0.00 0.00 88 1009.6
20260506125903 23 147 3.2 9.7 0.00 0.00 0.00 88 1009.5
20260506125358 23 146 4.8 9.7 0.00 0.00 0.00 88 1009.4
20260506124852 23 140 3.2 8.0 0.00 0.00 0.00 87 1009.4
20260506124347 23 141 3.2 8.0 0.00 0.00 0.00 87 1009.3
20260506124341 23 153 1.6 8.0 0.00 0.00 0.00 87 1009.3
20260506123334 23 161 1.6 6.4 0.00 0.00 0.00 87 1009.4
20260506122828 23 162 0.0 6.4 0.00 0.00 0.00 87 1009.3
20260506122322 23 163 0.0 0.0 0.00 0.00 0.00 87 1009.4
20260506121816 23 163 0.0 0.0 0.00 0.00 0.00 87 1009.4
20260506121310 23 163 0.0 0.0 0.00 0.00 0.00 87 1009.4
20260506121037 23 163 0.0 0.0 0.00 0.00 0.00 87 1009.5
20260506120258 23 163 0.0 0.0 0.00 0.00 0.00 87 1009.3
20260506115752 23 163 0.0 0.0 0.00 0.00 0.00 87 1009.2
20260506115246 23 163 0.0 0.0 0.00 0.00 0.00 87 1009.2
20260506114740 23 163 0.0 0.0 0.00 0.00 0.00 87 1009.2
20260506114234 23 163 0.0 0.0 0.00 0.00 0.00 87 1009.2
20260506113727 23 163 0.0 3.2 0.00 0.00 0.00 87 1009.2
20260506113222 23 163 0.0 3.2 0.00 0.00 0.00 87 1009.3
20260506112717 23 162 0.0 3.2 0.00 0.00 0.00 87 1009.2
20260506112211 23 162 0.0 3.2 0.00 0.00 0.00 87 1009.2
20260506111704 23 162 1.6 3.2 0.00 0.00 0.00 87 1009.3
20260506111158 23 162 0.0 3.2 0.00 0.00 0.00 87 1009.3
20260506110923 23 162 0.0 1.6 0.00 0.00 0.00 87 1009.2
20260506110146 23 163 0.0 0.0 0.00 0.00 0.00 87 1009.2
20260506105640 23 163 0.0 0.0 0.00 0.00 0.00 87 1009.2
20260506105135 23 163 0.0 0.0 0.00 0.00 0.00 87 1009.1
20260506105129 23 163 0.0 0.0 0.00 0.00 0.00 87 1009.1
20260506104354 23 163 0.0 0.0 0.00 0.00 0.00 87 1009.0
20260506103616 23 163 0.0 0.0 0.00 0.00 0.00 87 1009.0
20260506103110 23 163 1.6 6.4 0.00 0.00 0.00 87 1008.9
20260506102604 23 163 1.6 8.0 0.00 0.00 0.00 87 1008.7
20260506102058 23 162 1.6 8.0 0.00 0.00 0.00 87 1008.8
20260506101552 23 159 1.6 6.4 0.00 0.00 0.00 87 1008.6
20260506101046 23 169 1.6 9.7 0.00 0.00 0.00 87 1008.5
20260506100540 23 167 1.6 9.7 0.00 0.00 0.00 87 1008.6
20260506100034 23 158 1.6 8.0 0.00 0.00 0.00 87 1008.5
20260506095528 23 167 1.6 8.0 0.00 0.00 0.00 86 1008.4
20260506095022 23 163 1.6 8.0 0.00 0.00 0.00 86 1008.4
20260506094520 23 157 1.6 8.0 0.00 0.00 0.00 86 1008.2
20260506094514 23 136 1.6 8.0 0.00 0.00 0.00 86 1008.2
20260506093504 23 142 3.2 11.3 0.00 0.00 0.00 86 1008.2
20260506092957 23 153 3.2 11.3 0.00 0.00 0.00 86 1008.2
20260506092453 23 180 3.2 11.3 0.00 0.00 0.00 86 1008.1
20260506092448 23 177 3.2 9.7 0.00 0.00 0.00 86 1008.1
20260506092105 24 164 3.2 11.3 0.00 0.00 0.00 86 1008.0
20260506091833 23 180 3.2 9.7 0.00 0.00 0.00 86 1008.1
20260506090428 24 164 3.2 12.9 0.00 0.00 0.00 86 1007.8
20260506085922 24 180 3.2 12.9 0.00 0.00 0.00 86 1008.0
20260506085648 24 151 3.2 11.3 0.00 0.00 0.00 86 1008.0
20260506084910 24 126 4.8 14.5 0.00 0.00 0.00 86 1008.0
20260506084404 24 139 4.8 14.5 0.00 0.00 0.00 86 1008.0
20260506083858 24 187 4.8 14.5 0.00 0.00 0.00 85 1008.0
20260506083351 24 114 4.8 14.5 0.00 0.00 0.00 85 1007.8
20260506082846 24 146 4.8 14.5 0.00 0.00 0.00 85 1007.7
20260506082339 24 155 6.4 22.5 0.00 0.00 0.00 85 1007.8
20260506082105 24 136 6.4 22.5 0.00 0.00 0.00 85 1008.0
20260506081602 24 194 4.8 14.5 0.00 0.00 0.00 85 1008.1
20260506080831 24 159 4.8 12.9 0.00 0.00 0.00 85 1008.0
20260506080336 24 214 4.8 14.5 0.00 0.00 0.00 85 1008.1
20260506080331 24 178 4.8 14.5 0.00 0.00 0.00 85 1007.8
20260506073326 24 163 6.4 16.1 0.00 0.00 0.00 85 1008.2
20260506072827 24 152 6.4 17.7 0.00 0.00 0.00 85 1008.3
20260506072327 24 190 6.4 17.7 0.00 0.00 0.00 85 1008.4
20260506071828 24 168 6.4 17.7 0.00 0.00 0.00 85 1008.4
20260506071326 24 128 6.4 20.9 0.00 0.00 0.00 85 1008.5
20260506070828 24 175 6.4 25.7 0.00 0.00 0.00 85 1008.4
20260506070554 24 146 6.4 25.7 0.00 0.00 0.00 85 1008.5
20260506062324 24 135 4.8 16.1 0.00 0.00 0.00 84 1008.5
20260506061824 24 144 6.4 17.7 0.00 0.00 0.00 84 1008.7
20260506061324 24 144 6.4 17.7 0.00 0.00 0.00 84 1008.6
20260506060823 24 155 6.4 14.5 0.00 0.00 0.00 84 1008.6
20260506060324 24 140 6.4 14.5 0.00 0.00 0.00 84 1008.6
20260506051247 24 124 6.4 17.7 0.00 0.00 0.00 84 1008.7
20260506050741 24 152 6.4 17.7 0.00 0.00 0.00 84 1008.7
20260506050235 24 159 4.8 12.9 0.00 0.00 0.00 84 1008.7
20260506044718 25 184 6.4 17.7 0.00 0.00 0.00 84 1008.7
20260506044212 25 182 6.4 16.1 0.00 0.00 0.00 84 1008.7
20260506043937 25 151 6.4 16.1 0.00 0.00 0.00 83 1008.6
20260506043200 25 195 6.4 19.3 0.00 0.00 0.00 83 1008.6
20260506042925 25 150 6.4 19.3 0.00 0.00 0.00 83 1008.4
20260506042148 25 146 6.4 16.1 0.00 0.00 0.00 83 1008.5
20260506041914 25 148 4.8 11.3 0.00 0.00 0.00 83 1008.4
20260506041142 25 126 4.8 14.5 0.00 0.00 0.00 83 1008.4
20260506040639 25 158 4.8 14.5 0.00 0.00 0.00 83 1008.4
20260506040412 25 146 4.8 12.9 0.00 0.00 0.00 83 1008.3
20260506035639 25 161 6.4 20.9 0.00 0.00 0.00 82 1008.2
20260506035408 25 132 6.4 20.9 0.00 0.00 0.00 82 1008.1
20260506034636 25 159 6.4 16.1 0.00 0.00 0.00 82 1008.1
20260506034139 25 174 6.4 14.5 0.00 0.00 0.00 82 1008.1
20260506033637 25 134 6.4 17.7 0.00 0.00 0.00 82 1008.0
20260506033137 25 142 6.4 17.7 0.00 0.00 0.00 82 1007.8
20260506032636 25 144 6.4 14.5 0.00 0.00 0.00 82 1007.7
20260506032137 25 153 6.4 12.9 0.00 0.00 0.00 82 1007.7
20260506031637 25 138 6.4 12.9 0.00 0.00 0.00 81 1007.6
20260506031138 25 152 6.4 12.9 0.00 0.00 0.00 81 1007.5
20260506030637 25 154 6.4 16.1 0.00 0.00 0.00 81 1007.4
20260506030134 25 171 8.0 17.7 0.00 0.00 0.00 81 1007.3
20260506025634 25 107 6.4 17.7 0.00 0.00 0.00 81 1007.4
20260506025134 25 145 6.4 17.7 0.00 0.00 0.00 80 1007.2
20260506024633 25 171 6.4 17.7 0.00 0.00 0.00 80 1007.1
20260506024133 25 116 6.4 14.5 0.00 0.00 0.00 80 1007.1
20260506023633 25 132 4.8 14.5 0.00 0.00 0.00 79 1006.9
20260506023134 25 136 4.8 12.9 0.00 0.00 0.00 79 1006.9
20260506022906 25 135 6.4 12.9 0.00 0.00 0.00 79 1006.9
20260506022134 25 144 4.8 12.9 0.00 0.00 0.00 79 1006.7
20260506021630 25 139 4.8 11.3 0.00 0.00 0.00 79 1006.7
20260506021129 26 144 3.2 9.7 0.00 0.00 0.00 78 1006.6
20260506020630 26 149 3.2 11.3 0.00 0.00 0.00 78 1006.5
20260506020128 26 137 4.8 11.3 0.00 0.00 0.00 78 1006.5
20260506015630 26 152 4.8 9.7 0.00 0.00 0.00 77 1006.3
20260506015129 26 141 4.8 9.7 0.00 0.00 0.00 77 1006.2
20260506014629 26 142 3.2 9.7 0.00 0.00 0.00 77 1006.2
20260506014129 26 140 3.2 8.0 0.00 0.00 0.00 76 1006.2
20260506013625 26 148 3.2 8.0 0.00 0.00 0.00 76 1006.2
20260506013125 26 146 3.2 6.4 0.00 0.00 0.00 75 1006.3
20260506012620 27 146 3.2 4.8 0.00 0.00 0.00 75 1006.2
20260506012113 27 147 3.2 4.8 0.00 0.00 0.00 74 1006.2
20260506011608 27 147 3.2 6.4 0.00 0.00 0.00 74 1006.3
20260506011101 27 146 3.2 9.7 0.00 0.00 0.00 74 1006.3